EW3349 Weather Reports


Display with metric or nautical units.
time (UTC)temp
F
wind
direction
speed
MPH
gust
MPH
rain 1hr
in
rain 24hr
in
rain mn
in
humidity
%
barometer
mb
20260901054250 68 145 0.0 0.0 0.04 1.05 0.03 97 1013.7
20260901053313 68 161 0.0 0.0 0.10 1.05 0.03 97 1013.9
20260901052318 68 178 0.0 2.0 0.10 1.03 0.02 97 1014.0
20260901051307 68 166 0.0 0.0 0.00 1.02 0.00 97 1014.1
20260901050241 68 167 0.0 0.0 0.00 1.02 0.00 97 1014.1
20260901045240 68 167 0.0 0.0 0.00 1.02 0.00 97 1014.1
20260901044208 68 167 0.0 0.0 0.00 1.02 0.00 97 1014.1
20260901042056 68 167 0.0 0.0 0.00 1.02 0.00 97 1014.1
20260901041113 68 167 0.0 0.0 0.00 1.02 0.00 97 1014.1
20260901040100 69 167 0.0 0.0 0.00 1.02 0.00 97 1014.0
20260901035106 69 167 0.0 0.0 0.00 1.02 1.02 97 1014.4
20260901034048 69 167 0.0 0.0 0.00 1.02 1.02 97 1014.4
20260901033023 69 167 0.0 0.0 0.00 1.02 1.02 97 1014.4
20260901032012 69 167 0.0 0.0 0.00 1.02 1.02 97 1014.5
20260901030939 69 167 0.0 0.0 0.00 1.02 1.02 97 1014.7
20260901021510 69 167 0.0 0.0 0.00 1.02 1.02 97 1015.0
20260901020443 69 148 0.0 0.0 0.00 1.02 1.02 97 1015.0
20260901015455 69 147 0.0 0.0 0.00 1.02 1.02 97 1015.0
20260901014506 69 147 0.0 0.0 0.00 1.02 1.02 97 1015.1
20260901012331 69 147 0.0 0.0 0.00 1.02 1.02 97 1015.1
20260901011342 69 147 0.0 0.0 0.00 1.02 1.02 96 1014.9
20260901010308 69 147 0.0 0.0 0.00 1.02 1.02 96 1014.7
20260901005246 69 147 0.0 0.0 0.00 1.02 1.02 96 1014.7
20260901004300 69 147 0.0 0.0 0.00 1.02 1.02 96 1014.7
20260901003258 69 147 0.0 0.0 0.00 1.02 1.02 96 1014.7
20260901002300 69 147 0.0 0.0 0.00 1.02 1.02 96 1014.7
20260901000204 69 147 0.0 0.0 0.00 1.02 1.02 96 1014.8
20260831234102 69 147 0.0 0.0 0.00 1.02 1.02 96 1014.8
20260831233106 69 147 0.0 0.0 0.00 1.02 1.02 96 1014.8
20260831230852 69 148 0.0 0.0 0.00 1.00 1.01 96 1014.8
20260831225916 69 174 0.0 0.0 0.00 1.00 1.01 96 1014.8
20260831224940 69 174 0.0 0.0 0.00 1.00 1.01 96 1014.9
20260831223955 69 174 0.0 0.0 0.00 1.00 1.01 96 1014.9
20260831222952 69 174 0.0 0.0 0.00 1.00 1.01 96 1014.9
20260831221943 69 174 0.0 0.0 0.00 1.00 1.01 96 1014.9
20260831220926 69 168 0.0 0.0 0.00 1.00 1.01 96 1015.0
20260831215907 68 172 0.0 0.0 0.00 1.00 1.01 96 1015.1
20260831214850 68 173 0.0 0.0 0.00 1.00 1.01 96 1015.0
20260831213819 68 203 0.0 0.0 0.00 1.00 1.01 96 1015.0
20260831212751 68 176 0.0 1.0 0.00 1.00 1.01 96 1015.1
20260831211720 68 176 0.0 0.0 0.00 1.00 1.01 96 1015.2
20260831210731 68 174 0.0 0.0 0.00 1.00 1.01 96 1015.3
20260831205702 68 165 0.0 0.0 0.00 1.00 1.01 96 1015.3
20260831204700 68 110 0.0 2.0 0.00 1.00 1.01 95 1015.2
20260831203653 68 196 0.0 0.0 0.04 0.99 1.00 96 1015.3
20260831202619 68 198 0.0 0.0 0.05 0.99 1.00 96 1015.3
20260831200535 68 185 0.0 0.0 0.06 0.98 0.98 96 1015.5
20260831195513 68 184 0.0 0.0 0.12 0.97 0.97 95 1015.7
20260831194535 68 197 0.0 0.0 0.43 0.94 0.96 95 1015.8
20260831191239 68 319 0.0 0.0 0.32 0.85 0.85 95 1016.2
20260831190209 68 213 0.0 1.0 1.60 0.72 0.74 95 1016.2
20260831185135 68 169 0.0 2.0 0.40 0.64 0.63 95 1016.2
20260831181814 68 166 0.0 0.0 0.06 0.53 0.52 95 1016.3
20260831180756 68 32 0.0 0.0 0.38 0.52 0.51 94 1016.5
20260831175741 69 172 0.0 0.0 0.18 0.43 0.43 94 1016.5
20260831174734 69 196 0.0 0.0 0.21 0.40 0.38 94 1016.5
20260831173746 69 186 0.0 1.0 0.00 0.37 0.36 94 1016.6
20260831172724 69 203 0.0 3.0 0.00 0.37 0.36 94 1016.5
20260831171724 69 162 0.0 0.0 0.00 0.37 0.36 94 1016.8
20260831170738 69 151 0.0 2.0 0.06 0.37 0.36 94 1017.0
20260831165752 69 196 0.0 0.0 0.10 0.36 0.35 95 1017.0
20260831164746 69 160 0.0 0.0 0.00 0.35 0.34 95 1017.0
20260831163753 69 209 0.0 0.0 0.06 0.34 0.33 94 1017.1
20260831162759 68 190 0.0 0.0 0.08 0.33 0.32 95 1017.3
20260831161815 68 212 0.0 1.0 0.04 0.33 0.31 94 1017.3
20260831155631 68 186 0.0 0.0 0.05 0.31 0.28 95 1017.5
20260831154635 68 203 0.0 0.0 0.06 0.31 0.28 95 1017.5
20260831152523 67 205 0.0 0.0 0.06 0.28 0.26 95 1017.6
20260831151510 67 205 0.0 1.0 0.06 0.27 0.25 95 1017.6
20260831145350 67 169 0.0 0.0 0.00 0.25 0.23 95 1017.5
20260831144343 67 169 0.0 0.0 0.06 0.25 0.23 95 1017.5
20260831143338 66 171 0.0 0.0 0.19 0.24 0.21 95 1017.5
20260831142313 66 171 0.0 0.0 0.27 0.20 0.18 95 1017.2
20260831140116 66 186 0.0 0.0 0.15 0.16 0.13 95 1017.0
20260831135132 67 178 0.0 0.0 0.09 0.14 0.12 95 1017.2
20260831134113 66 194 0.0 0.0 0.00 0.12 0.10 95 1017.4
20260831133129 66 207 0.0 0.0 0.05 0.12 0.10 94 1017.6
20260831132059 66 207 0.0 0.0 0.05 0.12 0.10 94 1017.6
20260831131039 66 207 0.0 0.0 0.15 0.11 0.09 94 1017.6
20260831124817 67 207 0.0 0.0 0.06 0.04 0.02 94 1017.5
20260831123801 67 207 0.0 0.0 0.00 0.03 0.01 94 1017.5
20260831122734 67 225 0.0 0.0 0.00 0.03 0.01 94 1017.4
20260831121732 67 194 0.0 0.0 0.00 0.03 0.01 94 1017.4
20260831120716 66 201 0.0 0.0 0.00 0.02 0.00 95 1017.6
20260831114553 66 177 0.0 1.0 0.00 0.02 0.00 95 1017.7
20260831112426 65 168 0.0 0.0 0.00 0.02 0.00 95 1017.7
20260831111434 65 158 0.0 1.0 0.00 0.02 0.00 95 1017.7
20260831104157 65 164 0.0 0.0 0.00 0.02 0.00 95 1017.7
20260831103143 65 169 0.0 0.0 0.00 0.02 0.00 94 1017.5
20260831102140 65 169 0.0 0.0 0.00 0.02 0.00 94 1017.5
20260831101130 65 166 0.0 0.0 0.00 0.02 0.00 94 1017.6
20260831100152 65 166 0.0 0.0 0.00 0.02 0.00 94 1017.7
20260831095132 65 158 0.0 0.0 0.00 0.02 0.00 93 1017.7
20260831094138 65 177 0.0 0.0 0.00 0.02 0.00 93 1017.7
20260831093132 65 177 0.0 0.0 0.00 0.02 0.00 93 1017.8
20260831092109 65 177 0.0 0.0 0.00 0.02 0.00 93 1017.8
20260831091040 65 177 0.0 0.0 0.00 0.02 0.00 93 1017.8
20260831090009 65 177 0.0 0.0 0.00 0.02 0.00 92 1017.8
20260831085015 65 178 0.0 0.0 0.00 0.02 0.00 92 1017.8
20260831084030 65 178 0.0 0.0 0.00 0.02 0.00 92 1017.8
20260831083049 65 178 0.0 0.0 0.00 0.02 0.00 92 1017.9
20260831082024 65 178 0.0 0.0 0.00 0.02 0.00 92 1018.0
20260831075857 65 178 0.0 0.0 0.00 0.02 0.00 92 1017.8
20260831072647 64 182 0.0 0.0 0.00 0.02 0.00 93 1017.8
20260831071706 64 161 0.0 0.0 0.00 0.02 0.00 93 1017.9
20260831070648 64 147 0.0 0.0 0.00 0.02 0.00 93 1018.0
20260831065631 64 147 0.0 0.0 0.00 0.02 0.00 93 1018.0
20260831064557 64 169 0.0 0.0 0.00 0.02 0.00 93 1017.9
20260831063537 64 163 0.0 0.0 0.00 0.02 0.00 93 1018.1
20260831061422 64 169 0.0 0.0 0.00 0.02 0.00 94 1018.0
20260831060441 63 169 0.0 0.0 0.00 0.02 0.00 94 1018.1
20260831055453 63 183 0.0 0.0 0.00 0.02 0.00 94 1018.1